Regional Weather Roundup
Issued by NWS

Home | Current Version | Previous Version | Text Only | Print | Product List | Glossary Off
Versions: 1 2 3 4 5 6 7 8 9 10 11 12 13 14 15 16 17 18 19 20 21 22 23 24 25 26 27 28 29 30 31 32 33 34 35 36 37 38 39 40 41 42 43 44 45 46 47 48 49 50

000
ASUS43 KMKX 261200
RWRWI

WISCONSIN REGIONAL WEATHER ROUNDUP
NATIONAL WEATHER SERVICE MILWAUKEE/SULLIVAN WI
700 AM CDT FRI MAY 26 2017

NOTE: "FAIR" INDICATES FEW OR NO CLOUDS BELOW 12,000 FEET WITH NO
SIGNIFICANT WEATHER AND/OR OBSTRUCTIONS TO VISIBILITY.

WIZ001-002-006>008-014>016-023>028-261300-
NORTHWEST WISCONSIN

CITY           SKY/WX    TMP DP  RH WIND       PRES   REMARKS
SUPERIOR ARPT  NOT AVBL
ASHLAND        CLOUDY    51  49  92 CALM      29.77S
6HR MIN TEMP:  47; 6HR MAX TEMP:  51; 6HR PCP:  0.02;

HAYWARD        CLOUDY    60  50  69 SE7       29.75S
6HR MIN TEMP:  55; 6HR MAX TEMP:  60; 6HR PCP: TRACE;

SIREN          CLOUDY    59  52  77 CALM      29.72S
CUMBERLAND     CLOUDY    55  52  88 SE7       29.74S
RICE LAKE      CLOUDY    59  53  81 SE9       29.76S
CHETEK         CLOUDY    58  55  89 SE5       29.76S
LADYSMITH      CLOUDY    58  54  85 SE5       29.79S
EAU CLAIRE     NOT AVBL
MENOMONIE      CLOUDY    59  55  88 E6        29.75R
NEW RICHMOND   CLOUDY    59  51  75 SE9       29.72S
OSCEOLA        CLOUDY    60  53  77 SE6       29.74S
$$

WIZ003>005-009-010-017-018-261300-
NORTH CENTRAL WISCONSIN

CITY           SKY/WX    TMP DP  RH WIND       PRES   REMARKS
MANITOWISH WTR LGT RAIN  53  53 100 SE3       29.81F
ARBOR VITAE    LGT RAIN  57  55  92 S5        29.81F
WOODRUFF       LGT RAIN  57  55  92 S5        29.81F
RHINELANDER    CLOUDY    56  53  90 E5        29.83S
6HR MIN TEMP:  55; 6HR MAX TEMP:  58; 6HR PCP:  0.01;

EAGLE RIVER    CLOUDY    52  50  94 CALM      29.84R
LAND O LAKES   CLOUDY    52  50  93 CALM      29.84S
PHILLIPS       CLOUDY    55  54  94 SE6       29.79F
TOMAHAWK       CLOUDY    54  51  91 CALM      29.82F
MEDFORD        CLOUDY    54  53  96 E5        29.79F
MERRILL        CLOUDY    55  54  97 CALM      29.83S
$$

WIZ029-030-035-036-043>047-261300-
CENTRAL WISCONSIN

CITY           SKY/WX    TMP DP  RH WIND       PRES   REMARKS
WAUSAU         CLOUDY    55  54  96 E8        29.80F
6HR MIN TEMP:  54; 6HR MAX TEMP:  59; 6HR PCP: TRACE;

MOSINEE        CLOUDY    54  54 100 E6        29.83S
MARSHFIELD     CLOUDY    57  54  89 E6        29.80R FOG
6HR MIN TEMP:  55; 6HR MAX TEMP:  57; 6HR PCP:  0.01;

STEVENS POINT  CLOUDY    54  54 100 NE3       29.82S
WAUPACA        PTSUNNY   57  56  95 CALM      29.84S FOG
WAUTOMA        CLOUDY    55  55 100 NE5       29.83R FOG
6HR MIN TEMP:  52; 6HR MAX TEMP:  55;

WISC RAPIDS    CLOUDY    56  55  97 E3        29.83R
6HR MIN TEMP:  52; 6HR MAX TEMP:  57; 6HR PCP:  0.07;

CAMP DOUGLAS   NOT AVBL
$$

WIZ011>013-019>022-031-037>040-048>050-261300-
NORTHEAST WISCONSIN

CITY           SKY/WX    TMP DP  RH WIND       PRES   REMARKS
ANTIGO         CLOUDY    52  52 100 SE5       29.85S
SHAWANO        CLOUDY    54  53  95 CALM      29.85R
OCONTO         CLOUDY    51  50  98 CALM      29.84S
STURGEON BAY   SUNNY     53  52  96 W3        29.85F
6HR MIN TEMP:  47; 6HR MAX TEMP:  53;

GREEN BAY      MOSUNNY   53  53 100 CALM      29.84S
6HR MIN TEMP:  49; 6HR MAX TEMP:  53;

MANITOWOC      CLOUDY    52  50  93 CALM      29.86R FOG
APPLETON       LGT RAIN  55  54  94 SW7       29.93R
CLINTONVILLE   DRIZZLE   52  52 100 CALM      29.84S
OSHKOSH        CLOUDY    57  53  86 SE3       29.83S
6HR MIN TEMP:  53; 6HR MAX TEMP:  57; 6HR PCP: TRACE;

$$

WIZ032>034-041-042-053>061-261300-
SOUTHWEST WISCONSIN

CITY           SKY/WX    TMP DP  RH WIND       PRES   REMARKS
LA CROSSE      SUNNY     59  56  89 E7        29.76S
6HR MIN TEMP:  57; 6HR MAX TEMP:  61; 6HR PCP:  0.03;

SPARTA         SUNNY     52  52 100 CALM      29.79S FOG
VIROQUA        SUNNY     55  54  95 MISG      29.78S
BOSCOBEL       CLOUDY    56  55  97 VRB3      29.78F FOG
6HR MIN TEMP:  51; 6HR MAX TEMP:  58;

PRAIRIE DU CHI CLOUDY    56  53  88 CALM      29.76S
PLATTEVILLE    MOSUNNY   56  56  97 E8        29.79F
$$

WIZ056-057-062-063-064-067-068-261300-
SOUTH CENTRAL WISCONSIN

CITY           SKY/WX    TMP DP  RH WIND       PRES   REMARKS
REEDSBURG      MOSUNNY   54  54 100 CALM      29.81R FOG
BARABOO/DELLS  MOSUNNY   53  52  95 CALM      29.81S
LONE ROCK      SUNNY     57  54  89 E9        29.80S FOG
MINERAL POINT  SUNNY     59  55  88 E5        29.80S
MADISON        PTSUNNY   55  53  93 S3        29.82R
6HR MIN TEMP:  53; 6HR MAX TEMP:  59; 6HR PCP: TRACE;

MIDDLETON        N/A     53  53 100 CALM      29.83S VSB 1/4
WATERTOWN      PTSUNNY   54  54 100 E3        29.83S
MONROE         SUNNY     54  54 100 E5        29.81S FOG
JANESVILLE     MOSUNNY   55  55 100 CALM      29.83R
$$

WIZ051-052-058>065-066-070>072-261300-
SOUTHEAST WISCONSIN

CITY           SKY/WX    TMP DP  RH WIND       PRES   REMARKS
MILWAUKEE      PTSUNNY   56  54  93 E3        29.86R FOG
6HR MIN TEMP:  51; 6HR MAX TEMP:  56; 6HR PCP:  0.02;

WAUKESHA       MOSUNNY   54  54 100 CALM      29.86S FOG
MILWAUKEE/TIMM   N/A     54  50  87 CALM      29.86R
RACINE         MOSUNNY   55  52  89 CALM      29.87R
6HR MIN TEMP:  49; 6HR MAX TEMP:  55; 6HR PCP: TRACE;

KENOSHA        CLOUDY    55  53  93 NE5       29.85S
6HR MIN TEMP:  48; 6HR MAX TEMP:  55;

FOND DU LAC    CLOUDY    57  52  83 SE3       29.84S
6HR MIN TEMP:  51; 6HR MAX TEMP:  57; 6HR PCP:  0.01;

SHEBOYGAN      CLOUDY    51  51 100 S3        29.86R FOG
6HR MIN TEMP:  46; 6HR MAX TEMP:  52;

WEST BEND      LGT RAIN  52  52 100 E5        29.85S
JUNEAU         CLOUDY    54  53  97 CALM      29.85S FOG
$$

LSZ147-162-261300-
LAKE SUPERIOR

STATION/POSITION TIME  TEMP    WIND        PRES    WAVE
                       AIR SEA DIR/SP/G            HT/PER
                 (UTC) (F)     (DEG/KT/KT) (MB)    (FT/S)
W MID LAKE BUOY  1050   43 37  350/  2/  2 1008.6R   1
DEVILS ISLAND    1100   43     250/  7/  8 1008.6R
PORT WING        1140   44      60/  6/  8 1007.5F
SAXON HARBOR     1140   54     180/  2/  5 1007.5F
$$

LMZ867-665-643>646-261300-
LAKE MICHIGAN

STATION/POSITION TIME  TEMP    WIND        PRES    WAVE
                       AIR SEA DIR/SP/G            HT/PER
                 (UTC) (F)     (DEG/KT/KT) (MB)    (FT/S)
CHAMBERS ISLAND  1140   53      30/  2/  2 1010.5R
N MID LAKE BUOY  1050   43 41  270/  6/  8 1011.2R   0
NORTHPORT PIER   1140   52     320/  3/  4 1010.8R
SISTER BAY       1021   48        CALM       N/A
KEWAUNEE LAKESHO 1130   51     300/  3/  3 1010.4S
SHEBOYGAN LAKESH 1100   49      30/  7/  8 1010.8R
PORT WASHINGTON  1140   54      70/  2/  3 1012.2R
MILWAUKEE LAKESH 1130   52      40/  4/  5   N/A
S MID LAKE BUOY  1050   46 45  360/  6/  8 1010.7R   1/ 5
KENOSHA   LAKESH 1100   54        CALM     1011.2
$$

TC  - TEMPERATURE IN CELSIUS
VSB - VISIBILITY IN STATUTE MILES
WCI - WIND CHILL INDEX
HX  - HEAT INDEX




USA.gov is the U.S. government's official web portal to all federal, state and local government web resources and services.